Weather History for K20U - May, 2012

Change the Weather History Date:

Wednesday, May 2, 2012

  Actual Average (KDIK) Record (KDIK)
Temperature  
Mean Temperature 48 °F 49 °F  
Max Temperature 62 °F 62 °F 87 °F (1955)
Min Temperature 35 °F 35 °F 6 °F (1967)
Degree Days  
Heating Degree Days 16 17  
Month to date heating degree days 34  
Since 1 July heating degree days 8096  
Cooling Degree Days 0 0  
Month to date cooling degree days 0  
Year to date cooling degree days 1  
Moisture  
Dew Point 31 °F    
Average Humidity 53    
Maximum Humidity 87    
Minimum Humidity 29    
Precipitation  
Precipitation 0.00 in 0.07 in 1.21 in (1988)
Month to date precipitation 0.14  
Year to date precipitation 2.93  
Sea Level Pressure  
Sea Level Pressure 29.74 in    
Wind  
Wind Speed 8 mph (WNW)    
Max Wind Speed 14 mph    
Max Gust Speed 18 mph    
Visibility 10 miles    
Events      
T = Trace of Precipitation, MM = Missing Value Source: NWS Daily Summary

Daily Weather History Graph

Daily Weather History Graph

Search for Another Location

Airport or City:

Trip Planner

Search our weather history database for the weather conditions in past years. The results will help you decide how hot, cold, wet, or windy it might be!

Date:

Astronomy

May. 02, 2012 Rise Set
Actual Time 5:38 AM MDT 8:08 PM MDT
Civil Twilight 5:04 AM MDT 8:42 PM MDT
Nautical Twilight 4:21 AM MDT 9:25 PM MDT
Astronomical Twilight 3:32 AM MDT 10:15 PM MDT
Moon 4:11 PM MDT (5/2) 3:24 AM MDT (5/2)
Length of Visible Light 15h 38m
Length of Day
14h 30m
Waxing Gibbous, 84% of the Moon is Illuminated
May 2
Waxing Gibbous
May 5
Full
May 12
Last Quarter
May 20
New
May 28
First Quarter

Hourly Weather History & Observations

Time (MDT) Temp. Windchill Dew Point Humidity Pressure Visibility Wind Dir Wind Speed Gust Speed Precip Events Conditions
12:15 AM 41.0 °F 36.4 °F 35.6 °F 81% 29.69 in 10.0 mi SW 6.9 mph - N/A   Clear
12:35 AM 41.0 °F 36.4 °F 35.6 °F 81% 29.69 in 10.0 mi SW 6.9 mph - N/A   Clear
12:55 AM 39.2 °F 34.2 °F 33.8 °F 81% 29.69 in 10.0 mi SW 6.9 mph - N/A   Clear
1:15 AM 41.0 °F 34.7 °F 33.8 °F 76% 29.69 in 10.0 mi WSW 10.4 mph - N/A   Clear
1:55 AM 39.2 °F 33.6 °F 32.0 °F 75% 29.69 in 10.0 mi WSW 8.1 mph - N/A   Clear
2:15 AM 39.2 °F 33.0 °F 32.0 °F 75% 29.69 in 10.0 mi WSW 9.2 mph - N/A   Clear
2:35 AM 37.4 °F 32.1 °F 32.0 °F 81% 29.68 in 10.0 mi West 6.9 mph - N/A   Clear
2:55 AM 39.2 °F 34.2 °F 32.0 °F 75% 29.69 in 10.0 mi West 6.9 mph - N/A   Clear
3:15 AM 35.6 °F - 32.0 °F 87% 29.69 in 10.0 mi Calm Calm - N/A   Clear
3:55 AM 35.6 °F 27.5 °F 32.0 °F 87% 29.70 in 10.0 mi SW 11.5 mph - N/A   Clear
4:15 AM 37.4 °F 32.1 °F 32.0 °F 81% 29.70 in 10.0 mi SW 6.9 mph - N/A   Clear
4:35 AM 37.4 °F 32.1 °F 32.0 °F 81% 29.70 in 10.0 mi SW 6.9 mph - N/A   Clear
5:15 AM 35.6 °F 28.6 °F 32.0 °F 87% 29.71 in 10.0 mi WSW 9.2 mph - N/A   Clear
5:35 AM 37.4 °F 30.8 °F 32.0 °F 81% 29.71 in 10.0 mi WSW 9.2 mph - N/A   Clear
5:55 AM 35.6 °F 28.6 °F 32.0 °F 87% 29.72 in 10.0 mi SW 9.2 mph - N/A   Clear
6:15 AM 37.4 °F 30.8 °F 32.0 °F 81% 29.73 in 10.0 mi SW 9.2 mph - N/A   Clear
6:35 AM 39.2 °F 33.6 °F 32.0 °F 75% 29.73 in 10.0 mi SW 8.1 mph - N/A   Clear
6:55 AM 41.0 °F 36.4 °F 32.0 °F 70% 29.73 in 10.0 mi WSW 6.9 mph - N/A   Clear
7:15 AM 44.6 °F 39.7 °F 32.0 °F 61% 29.73 in 10.0 mi WSW 9.2 mph - N/A   Clear
7:35 AM 44.6 °F 40.2 °F 33.8 °F 66% 29.73 in 10.0 mi West 8.1 mph - N/A   Clear
7:55 AM 48.2 °F - 32.0 °F 54% 29.74 in 10.0 mi WSW 9.2 mph - N/A   Clear
8:15 AM 48.2 °F - 32.0 °F 54% 29.75 in 10.0 mi West 11.5 mph - N/A   Partly Cloudy
8:35 AM 48.2 °F - 32.0 °F 54% 29.75 in 10.0 mi West 8.1 mph - N/A   Mostly Cloudy
8:55 AM 50.0 °F - 30.2 °F 47% 29.75 in 10.0 mi West 8.1 mph - N/A   Mostly Cloudy
9:15 AM 51.8 °F - 28.4 °F 41% 29.75 in 10.0 mi West 11.5 mph - N/A   Mostly Cloudy
9:35 AM 53.6 °F - 24.8 °F 33% 29.74 in 10.0 mi West 11.5 mph - N/A   Mostly Cloudy
9:55 AM 53.6 °F - 26.6 °F 35% 29.74 in 10.0 mi WNW 10.4 mph - N/A   Overcast
10:15 AM 53.6 °F - 26.6 °F 35% 29.74 in 10.0 mi West 9.2 mph - N/A   Mostly Cloudy
10:35 AM 55.4 °F - 26.6 °F 33% 29.73 in 10.0 mi WNW 9.2 mph - N/A   Mostly Cloudy
10:55 AM 55.4 °F - 26.6 °F 33% 29.73 in 10.0 mi NW 8.1 mph - N/A   Partly Cloudy
11:15 AM 55.4 °F - 26.6 °F 33% 29.73 in 10.0 mi WNW 6.9 mph - N/A   Mostly Cloudy
11:35 AM 55.4 °F - 26.6 °F 33% 29.73 in 10.0 mi WNW 9.2 mph - N/A   Partly Cloudy
11:55 AM 57.2 °F - 28.4 °F 33% 29.73 in 10.0 mi WNW 5.8 mph - N/A   Mostly Cloudy
12:15 PM 57.2 °F - 28.4 °F 33% 29.73 in 10.0 mi SSW 3.5 mph - N/A   Overcast
12:35 PM 57.2 °F - 28.4 °F 33% 29.73 in 10.0 mi NW 4.6 mph - N/A   Mostly Cloudy
12:55 PM 59.0 °F - 28.4 °F 31% 29.73 in 10.0 mi NW 5.8 mph - N/A   Mostly Cloudy
1:15 PM 60.8 °F - 28.4 °F 29% 29.73 in 10.0 mi South 6.9 mph - N/A   Mostly Cloudy
1:35 PM 59.0 °F - 28.4 °F 31% 29.73 in 10.0 mi NW 3.5 mph - N/A   Mostly Cloudy
1:55 PM 59.0 °F - 28.4 °F 31% 29.73 in 10.0 mi Calm Calm - N/A   Overcast
2:15 PM 62.6 °F - 30.2 °F 30% 29.73 in 10.0 mi East 3.5 mph - N/A   Overcast
2:35 PM 62.6 °F - 32.0 °F 32% 29.72 in 10.0 mi Calm Calm - N/A   Mostly Cloudy
2:55 PM 62.6 °F - 30.2 °F 30% 29.72 in 10.0 mi Calm Calm - N/A   Overcast
3:35 PM 62.6 °F - 32.0 °F 32% 29.72 in 10.0 mi NNE 9.2 mph 16.1 mph N/A   Scattered Clouds
3:55 PM 62.6 °F - 32.0 °F 32% 29.72 in 10.0 mi NNW 13.8 mph - N/A   Scattered Clouds
4:15 PM 62.6 °F - 32.0 °F 32% 29.73 in 10.0 mi North 10.4 mph - N/A   Clear
4:35 PM 62.6 °F - 32.0 °F 32% 29.73 in 10.0 mi North 10.4 mph - N/A   Clear
4:55 PM 62.6 °F - 32.0 °F 32% 29.74 in 10.0 mi NNW 12.7 mph 18.4 mph N/A   Mostly Cloudy
5:15 PM 62.6 °F - 32.0 °F 32% 29.73 in 10.0 mi NNW 11.5 mph - N/A   Scattered Clouds
5:35 PM 62.6 °F - 32.0 °F 32% 29.74 in 10.0 mi NNW 8.1 mph - N/A   Scattered Clouds
5:55 PM 59.0 °F - 32.0 °F 36% 29.74 in 10.0 mi North 11.5 mph - N/A   Partly Cloudy
6:15 PM 59.0 °F - 32.0 °F 36% 29.74 in 10.0 mi NE 12.7 mph 18.4 mph N/A   Scattered Clouds
6:35 PM 59.0 °F - 32.0 °F 36% 29.76 in 10.0 mi NNE 13.8 mph - N/A   Mostly Cloudy
6:55 PM 57.2 °F - 30.2 °F 36% 29.77 in 10.0 mi NNE 12.7 mph - N/A   Overcast
7:15 PM 57.2 °F - 32.0 °F 38% 29.77 in 10.0 mi North 12.7 mph 18.4 mph N/A   Overcast
7:35 PM 55.4 °F - 32.0 °F 41% 29.77 in 10.0 mi North 11.5 mph - N/A   Overcast
7:55 PM 55.4 °F - 32.0 °F 41% 29.78 in 10.0 mi North 11.5 mph - N/A   Mostly Cloudy
8:15 PM 51.8 °F - 32.0 °F 47% 29.79 in 10.0 mi North 10.4 mph - N/A   Scattered Clouds
8:35 PM 48.2 °F - 33.8 °F 58% 29.81 in 10.0 mi North 8.1 mph - N/A   Clear
8:55 PM 46.4 °F 42.9 °F 33.8 °F 62% 29.82 in 10.0 mi North 6.9 mph - N/A   Clear
9:15 PM 46.4 °F 45.2 °F 33.8 °F 62% 29.83 in 10.0 mi NW 3.5 mph - N/A   Clear
9:35 PM 44.6 °F - 33.8 °F 66% 29.84 in 10.0 mi Calm Calm - N/A   Clear
9:55 PM 44.6 °F - 33.8 °F 66% 29.85 in 10.0 mi Calm Calm - N/A   Clear
10:55 PM 39.2 °F 35.9 °F 33.8 °F 81% 29.85 in 10.0 mi South 4.6 mph - N/A   Clear
11:35 PM 37.4 °F 33.8 °F 32.0 °F 81% 29.85 in 10.0 mi South 4.6 mph - N/A   Clear
11:55 PM 37.4 °F 34.9 °F 32.0 °F 81% 29.85 in 10.0 mi SSW 3.5 mph - N/A   Clear